{"data":{"norad_id":55675,"epoch":"2026-05-24T23:00:21.477024Z","epoch_age_seconds":75658,"freshness":"FRESH","line1":"1 55675U 23021AZ  26144.95858191  .00000773  00000+0  72555-4 0  9993","line2":"2 55675  69.9990 331.9632 0002859 268.5534  91.5298 14.98334327180711","mean_motion":14.98334327,"eccentricity":0.0002859,"inclination_deg":69.999,"raan_deg":331.9632,"arg_perigee_deg":268.5534,"mean_anomaly_deg":91.5298,"bstar":7.2555e-5,"rev_number":18071,"period_min":96.106721580837,"perigee_km":570.05545376412,"apogee_km":574.02956640799,"semimajor_km":6950.1795100861,"source":"CELESTRAK","updated_at":"2026-05-25T13:38:17.877074Z"}}